Time,TemperatureF,DewpointF,PressureIn,WindDirection,WindDirectionDegrees,WindSpeedMPH,WindSpeedGustMPH,Humidity,HourlyPrecipIn,Conditions,Clouds,dailyrainin,SoftwareType,DateUTC
2013-03-26 00:03:00,35.0,34.0,29.63,NW,315,12.0,15.0,97,0.01,,,0.89,,2013-03-26 04:03:00,
2013-03-26 00:12:00,35.0,34.0,29.63,NW,315,12.0,15.0,97,0.01,,,0.89,,2013-03-26 04:12:00,
2013-03-26 00:23:00,35.0,34.0,29.63,NW,305,14.0,21.0,97,0.01,,,0.89,,2013-03-26 04:23:00,
2013-03-26 00:33:00,35.0,34.0,29.66,WNW,300,13.0,14.0,97,0.00,,,0.89,,2013-03-26 04:33:00,
2013-03-26 00:43:00,35.0,34.0,29.66,WNW,300,13.0,14.0,97,0.00,,,0.89,,2013-03-26 04:43:00,
2013-03-26 00:53:00,36.0,35.0,29.63,WNW,300,12.0,14.0,96,0.00,,,0.89,,2013-03-26 04:53:00,
2013-03-26 01:02:00,35.0,34.0,29.66,NW,305,12.0,14.0,97,0.00,,,0.89,,2013-03-26 05:02:00,
2013-03-26 01:12:00,35.0,34.0,29.66,NW,305,12.0,14.0,97,0.00,,,0.89,,2013-03-26 05:12:00,
2013-03-26 01:22:00,36.0,35.0,29.66,NW,325,13.0,15.0,96,0.00,,,0.89,,2013-03-26 05:22:00,
2013-03-26 01:32:00,36.0,35.0,29.66,NW,310,13.0,15.0,96,0.00,,,0.89,,2013-03-26 05:32:00,
2013-03-26 01:42:00,36.0,35.0,29.66,NW,310,13.0,15.0,96,0.00,,,0.89,,2013-03-26 05:42:00,
2013-03-26 01:52:00,36.0,35.0,29.66,NNW,330,9.0,12.0,96,0.00,,,0.89,,2013-03-26 05:52:00,
2013-03-26 02:02:00,36.0,35.0,29.66,NW,315,9.0,13.0,96,0.00,,,0.89,,2013-03-26 06:02:00,
2013-03-26 02:12:00,36.0,35.0,29.66,NW,315,9.0,13.0,96,0.00,,,0.89,,2013-03-26 06:12:00,
2013-03-26 02:22:00,36.0,34.0,29.69,NW,315,12.0,13.0,94,0.00,,,0.88,,2013-03-26 06:22:00,
2013-03-26 02:32:00,36.0,34.0,29.66,NW,315,12.0,12.0,94,0.00,,,0.88,,2013-03-26 06:32:00,
2013-03-26 02:42:00,36.0,34.0,29.66,NW,315,12.0,12.0,94,0.00,,,0.88,,2013-03-26 06:42:00,
2013-03-26 02:52:00,36.0,34.0,29.69,NW,315,8.0,9.0,92,0.00,,,0.88,,2013-03-26 06:52:00,
2013-03-26 03:02:00,36.0,34.0,29.69,NW,320,7.0,8.0,92,0.00,,,0.88,,2013-03-26 07:02:00,
2013-03-26 03:12:00,36.0,34.0,29.69,NW,320,7.0,8.0,92,0.00,,,0.88,,2013-03-26 07:12:00,
2013-03-26 03:22:00,36.0,34.0,29.69,NW,325,8.0,9.0,91,0.00,,,0.88,,2013-03-26 07:22:00,
2013-03-26 03:33:00,36.0,33.0,29.69,NNW,330,9.0,10.0,89,0.00,,,0.88,,2013-03-26 07:33:00,
2013-03-26 03:42:00,36.0,33.0,29.69,NNW,330,9.0,10.0,89,0.00,,,0.88,,2013-03-26 07:42:00,
2013-03-26 03:53:00,36.0,33.0,29.69,NNW,330,7.0,8.0,87,0.00,,,0.88,,2013-03-26 07:53:00,
2013-03-26 04:02:00,36.0,33.0,29.69,NW,310,7.0,8.0,88,0.00,,,0.88,,2013-03-26 08:02:00,
2013-03-26 04:12:00,36.0,33.0,29.69,NW,310,7.0,8.0,88,0.00,,,0.88,,2013-03-26 08:12:00,
2013-03-26 04:22:00,36.0,33.0,29.69,WNW,300,7.0,12.0,88,0.00,,,0.88,,2013-03-26 08:22:00,
2013-03-26 04:32:00,36.0,33.0,29.69,NW,305,8.0,8.0,89,0.00,,,0.88,,2013-03-26 08:32:00,
2013-03-26 04:42:00,36.0,33.0,29.69,NW,305,8.0,8.0,89,0.00,,,0.88,,2013-03-26 08:42:00,
2013-03-26 04:52:00,36.0,33.0,29.72,WNW,285,7.0,10.0,89,0.00,,,0.88,,2013-03-26 08:52:00,
2013-03-26 05:02:00,36.0,33.0,29.72,NW,305,7.0,9.0,89,0.00,,,0.88,,2013-03-26 09:02:00,
2013-03-26 05:12:00,36.0,33.0,29.72,NW,305,7.0,9.0,89,0.00,,,0.88,,2013-03-26 09:12:00,
2013-03-26 05:22:00,36.0,33.0,29.72,NW,310,6.0,9.0,88,0.00,,,0.86,,2013-03-26 09:22:00,
2013-03-26 05:33:00,36.0,33.0,29.72,NW,310,6.0,8.0,89,0.00,,,0.86,,2013-03-26 09:33:00,
2013-03-26 05:43:00,36.0,33.0,29.72,NW,310,6.0,8.0,89,0.00,,,0.86,,2013-03-26 09:43:00,
2013-03-26 05:52:00,36.0,33.0,29.72,WNW,295,7.0,9.0,88,0.00,,,0.84,,2013-03-26 09:52:00,
2013-03-26 06:03:00,36.0,33.0,29.72,WNW,300,7.0,9.0,88,0.00,,,0.84,,2013-03-26 10:03:00,
2013-03-26 06:12:00,36.0,33.0,29.72,WNW,300,7.0,9.0,88,0.00,,,0.84,,2013-03-26 10:12:00,
2013-03-26 06:22:00,36.0,33.0,29.72,NW,310,7.0,8.0,88,0.00,,,0.81,,2013-03-26 10:22:00,
2013-03-26 06:32:00,35.0,32.0,29.75,WNW,295,7.0,7.0,89,0.00,,,0.79,,2013-03-26 10:32:00,
2013-03-26 06:42:00,35.0,32.0,29.75,WNW,295,7.0,7.0,89,0.00,,,0.79,,2013-03-26 10:42:00,
2013-03-26 06:53:00,36.0,33.0,29.75,West,280,6.0,8.0,90,0.00,,,0.77,,2013-03-26 10:53:00,
2013-03-26 07:03:00,36.0,33.0,29.75,WNW,295,6.0,7.0,90,0.00,,,0.75,,2013-03-26 11:03:00,
2013-03-26 07:12:00,36.0,33.0,29.75,WNW,295,6.0,7.0,90,0.00,,,0.75,,2013-03-26 11:12:00,
2013-03-26 07:22:00,36.0,33.0,29.75,WNW,290,7.0,8.0,90,0.00,,,0.71,,2013-03-26 11:22:00,
2013-03-26 07:32:00,36.0,33.0,29.75,West,275,6.0,6.0,90,0.00,,,0.71,,2013-03-26 11:32:00,
2013-03-26 07:42:00,36.0,33.0,29.75,West,275,6.0,6.0,90,0.00,,,0.71,,2013-03-26 11:42:00,
2013-03-26 07:52:00,36.0,33.0,29.78,WNW,285,7.0,9.0,89,0.00,,,0.67,,2013-03-26 11:52:00,
2013-03-26 08:03:00,36.0,33.0,29.78,WNW,285,7.0,9.0,89,0.00,,,0.67,,2013-03-26 12:03:00,
2013-03-26 08:12:00,36.0,33.0,29.78,West,280,6.0,7.0,88,0.00,,,0.64,,2013-03-26 12:12:00,
2013-03-26 08:22:00,37.0,34.0,29.78,WNW,300,7.0,8.0,87,0.00,,,0.58,,2013-03-26 12:22:00,
2013-03-26 08:32:00,38.0,33.0,29.78,WNW,285,7.0,7.0,83,0.00,,,0.57,,2013-03-26 12:32:00,
2013-03-26 08:42:00,38.0,33.0,29.78,WNW,285,7.0,7.0,83,0.00,,,0.57,,2013-03-26 12:42:00,
2013-03-26 08:52:00,38.0,32.0,29.78,WNW,300,8.0,12.0,78,0.00,,,0.54,,2013-03-26 12:52:00,
2013-03-26 09:03:00,38.0,31.0,29.78,WNW,300,8.0,10.0,75,0.00,,,0.54,,2013-03-26 13:03:00,
2013-03-26 09:12:00,38.0,31.0,29.78,WNW,300,8.0,10.0,75,0.00,,,0.54,,2013-03-26 13:12:00,
2013-03-26 09:22:00,38.0,30.0,29.78,WNW,300,9.0,10.0,74,0.00,,,0.52,,2013-03-26 13:22:00,
2013-03-26 09:32:00,39.0,32.0,29.78,WNW,285,8.0,9.0,75,0.00,,,0.51,,2013-03-26 13:32:00,
2013-03-26 09:42:00,39.0,32.0,29.78,WNW,285,8.0,9.0,75,0.00,,,0.51,,2013-03-26 13:42:00,
2013-03-26 09:52:00,39.0,30.0,29.81,WNW,300,9.0,12.0,71,0.00,,,0.51,,2013-03-26 13:52:00,
2013-03-26 10:02:00,39.0,30.0,29.81,NW,325,9.0,12.0,70,0.00,,,0.51,,2013-03-26 14:02:00,
2013-03-26 10:12:00,39.0,30.0,29.81,NW,325,9.0,12.0,70,0.00,,,0.51,,2013-03-26 14:12:00,
2013-03-26 10:22:00,40.0,31.0,29.81,NW,305,9.0,10.0,69,0.00,,,0.50,,2013-03-26 14:22:00,
2013-03-26 10:32:00,40.0,30.0,29.81,NW,305,9.0,12.0,68,0.00,,,0.48,,2013-03-26 14:32:00,
2013-03-26 10:42:00,40.0,30.0,29.81,NW,305,9.0,12.0,68,0.00,,,0.48,,2013-03-26 14:42:00,
2013-03-26 10:53:00,41.0,31.0,29.81,WNW,300,12.0,13.0,66,0.00,,,0.48,,2013-03-26 14:53:00,
2013-03-26 11:02:00,41.0,31.0,29.81,WNW,295,12.0,13.0,66,0.00,,,0.47,,2013-03-26 15:02:00,
2013-03-26 11:12:00,41.0,31.0,29.81,WNW,295,12.0,13.0,66,0.00,,,0.47,,2013-03-26 15:12:00,
2013-03-26 11:22:00,42.0,31.0,29.81,NW,315,10.0,12.0,65,0.00,,,0.47,,2013-03-26 15:22:00,
2013-03-26 11:33:00,43.0,32.0,29.81,West,280,9.0,12.0,64,0.00,,,0.45,,2013-03-26 15:33:00,
2013-03-26 11:43:00,43.0,32.0,29.81,West,280,9.0,12.0,64,0.00,,,0.45,,2013-03-26 15:43:00,
2013-03-26 11:53:00,44.0,33.0,29.81,WNW,290,10.0,12.0,64,0.00,,,0.44,,2013-03-26 15:53:00,
2013-03-26 12:03:00,43.0,31.0,29.81,NW,325,10.0,14.0,62,0.00,,,0.43,,2013-03-26 16:03:00,
2013-03-26 12:13:00,43.0,31.0,29.81,NW,325,10.0,14.0,62,0.00,,,0.43,,2013-03-26 16:13:00,
2013-03-26 12:22:00,44.0,31.0,29.81,NW,310,10.0,15.0,60,0.00,,,0.41,,2013-03-26 16:22:00,
2013-03-26 12:32:00,44.0,31.0,29.81,NW,315,10.0,15.0,60,0.00,,,0.40,,2013-03-26 16:32:00,
2013-03-26 12:42:00,44.0,31.0,29.81,NW,315,10.0,15.0,60,0.00,,,0.40,,2013-03-26 16:42:00,
2013-03-26 12:54:00,44.0,31.0,29.81,NW,315,12.0,15.0,60,0.00,,,0.40,,2013-03-26 16:54:00,
2013-03-26 13:02:00,45.0,32.0,29.81,West,270,12.0,15.0,59,0.00,,,0.40,,2013-03-26 17:02:00,
2013-03-26 13:12:00,45.0,32.0,29.81,West,270,12.0,15.0,59,0.00,,,0.40,,2013-03-26 17:12:00,
2013-03-26 13:23:00,45.0,32.0,29.81,WNW,285,9.0,10.0,59,0.00,,,0.37,,2013-03-26 17:23:00,
2013-03-26 13:32:00,45.0,32.0,29.81,WNW,285,9.0,12.0,59,0.00,,,0.37,,2013-03-26 17:32:00,
2013-03-26 13:42:00,45.0,32.0,29.81,WNW,285,9.0,12.0,59,0.00,,,0.37,,2013-03-26 17:42:00,
2013-03-26 13:53:00,44.0,31.0,29.81,NW,305,10.0,12.0,59,0.00,,,0.34,,2013-03-26 17:53:00,
2013-03-26 14:02:00,45.0,32.0,29.81,NW,310,10.0,13.0,59,0.00,,,0.34,,2013-03-26 18:02:00,
2013-03-26 14:12:00,45.0,32.0,29.81,NW,310,10.0,13.0,59,0.00,,,0.34,,2013-03-26 18:12:00,
2013-03-26 14:23:00,46.0,32.0,29.81,WNW,285,9.0,12.0,58,0.00,,,0.31,,2013-03-26 18:23:00,
2013-03-26 14:34:00,46.0,31.0,29.81,West,270,8.0,12.0,55,0.00,,,0.30,,2013-03-26 18:34:00,
2013-03-26 14:42:00,46.0,31.0,29.81,West,270,8.0,12.0,55,0.00,,,0.30,,2013-03-26 18:42:00,
2013-03-26 14:53:00,46.0,30.0,29.81,West,275,8.0,9.0,53,0.00,,,0.28,,2013-03-26 18:53:00,
2013-03-26 15:03:00,46.0,30.0,29.81,WNW,300,8.0,10.0,53,0.00,,,0.28,,2013-03-26 19:03:00,
2013-03-26 15:12:00,46.0,30.0,29.81,WNW,300,8.0,10.0,53,0.00,,,0.28,,2013-03-26 19:12:00,
2013-03-26 15:22:00,47.0,30.0,29.81,West,275,9.0,12.0,51,0.00,,,0.26,,2013-03-26 19:22:00,
2013-03-26 15:32:00,48.0,31.0,29.81,West,280,9.0,10.0,51,0.00,,,0.26,,2013-03-26 19:32:00,
2013-03-26 15:42:00,48.0,31.0,29.81,West,280,9.0,10.0,51,0.00,,,0.26,,2013-03-26 19:42:00,
2013-03-26 15:53:00,49.0,31.0,29.81,NW,320,8.0,13.0,49,0.00,,,0.24,,2013-03-26 19:53:00,
2013-03-26 16:02:00,49.0,29.0,29.81,West,280,9.0,10.0,45,0.00,,,0.24,,2013-03-26 20:02:00,
2013-03-26 16:13:00,49.0,29.0,29.81,West,280,9.0,10.0,45,0.00,,,0.24,,2013-03-26 20:13:00,
2013-03-26 16:22:00,50.0,29.0,29.81,WSW,255,8.0,12.0,44,0.00,,,0.24,,2013-03-26 20:22:00,
2013-03-26 16:32:00,52.0,30.0,29.81,WNW,290,8.0,8.0,42,0.00,,,0.23,,2013-03-26 20:32:00,
2013-03-26 16:42:00,52.0,30.0,29.81,WNW,290,8.0,8.0,42,0.00,,,0.23,,2013-03-26 20:42:00,
2013-03-26 16:52:00,51.0,27.0,29.81,WNW,285,8.0,9.0,39,0.00,,,0.20,,2013-03-26 20:52:00,
2013-03-26 17:02:00,52.0,28.0,29.81,WSW,240,8.0,9.0,39,0.00,,,0.20,,2013-03-26 21:02:00,
2013-03-26 17:12:00,52.0,28.0,29.81,WSW,240,8.0,9.0,39,0.00,,,0.20,,2013-03-26 21:12:00,
2013-03-26 17:22:00,52.0,28.0,29.81,WSW,240,8.0,9.0,39,0.00,,,0.20,,2013-03-26 21:22:00,
2013-03-26 17:33:00,52.0,28.0,29.81,WSW,240,8.0,9.0,39,0.00,,,0.20,,2013-03-26 21:33:00,
2013-03-26 17:42:00,47.0,28.0,29.84,West,270,5.0,7.0,47,0.00,,,0.16,,2013-03-26 21:42:00,
2013-03-26 18:12:00,47.0,28.0,29.84,West,270,5.0,7.0,47,0.00,,,0.16,,2013-03-26 22:12:00,
2013-03-26 18:22:00,47.0,28.0,29.84,West,270,5.0,7.0,47,0.00,,,0.16,,2013-03-26 22:22:00,
2013-03-26 18:33:00,47.0,28.0,29.84,West,270,5.0,7.0,47,0.00,,,0.16,,2013-03-26 22:33:00,
2013-03-26 19:23:00,46.0,28.0,29.84,SW,235,2.0,3.0,49,0.00,,,0.07,,2013-03-26 23:23:00,
2013-03-26 19:32:00,44.0,27.0,29.84,WSW,240,2.0,2.0,51,0.00,,,0.06,,2013-03-26 23:32:00,
2013-03-26 19:43:00,44.0,27.0,29.84,WSW,240,2.0,2.0,51,0.00,,,0.06,,2013-03-26 23:43:00,
2013-03-26 19:53:00,42.0,28.0,29.87,WSW,255,0.0,1.0,57,0.00,,,0.06,,2013-03-26 23:53:00,
2013-03-26 20:02:00,41.0,28.0,29.87,SW,225,0.0,0.0,59,0.00,,,0.06,,2013-03-27 00:02:00,
2013-03-26 20:12:00,41.0,28.0,29.87,SW,225,0.0,0.0,59,0.00,,,0.06,,2013-03-27 00:12:00,
2013-03-26 20:22:00,40.0,28.0,29.87,West,260,0.0,0.0,63,0.00,,,0.04,,2013-03-27 00:22:00,
2013-03-26 20:32:00,39.0,28.0,29.87,West,280,0.0,0.0,64,0.00,,,0.04,,2013-03-27 00:32:00,
2013-03-26 20:42:00,39.0,28.0,29.87,West,280,0.0,0.0,64,0.00,,,0.04,,2013-03-27 00:42:00,
2013-03-26 20:52:00,40.0,29.0,29.87,SW,230,1.0,6.0,65,0.00,,,0.03,,2013-03-27 00:52:00,
2013-03-26 21:02:00,40.0,29.0,29.90,WSW,240,1.0,1.0,64,0.00,,,0.03,,2013-03-27 01:02:00,
2013-03-26 21:12:00,40.0,29.0,29.90,WSW,240,1.0,1.0,64,0.00,,,0.03,,2013-03-27 01:12:00,
2013-03-26 21:23:00,40.0,28.0,29.90,WSW,245,1.0,3.0,62,0.00,,,0.03,,2013-03-27 01:23:00,
2013-03-26 21:33:00,40.0,28.0,29.90,SW,235,1.0,3.0,61,0.00,,,0.03,,2013-03-27 01:33:00,
2013-03-26 21:42:00,40.0,28.0,29.90,SW,235,1.0,3.0,61,0.00,,,0.03,,2013-03-27 01:42:00,
2013-03-26 21:53:00,41.0,28.0,29.90,WSW,245,3.0,5.0,59,0.00,,,0.03,,2013-03-27 01:53:00,
2013-03-26 22:03:00,40.0,27.0,29.90,WSW,245,3.0,3.0,59,0.00,,,0.01,,2013-03-27 02:03:00,
2013-03-26 22:12:00,40.0,27.0,29.90,WSW,245,3.0,3.0,59,0.00,,,0.01,,2013-03-27 02:12:00,
2013-03-26 22:22:00,41.0,27.0,29.90,West,270,6.0,9.0,56,0.00,,,0.01,,2013-03-27 02:22:00,
2013-03-26 22:32:00,41.0,27.0,29.90,West,275,6.0,6.0,56,0.00,,,0.01,,2013-03-27 02:32:00,
2013-03-26 22:42:00,41.0,27.0,29.90,West,275,6.0,6.0,56,0.00,,,0.01,,2013-03-27 02:42:00,
2013-03-26 22:53:00,42.0,27.0,29.90,West,275,5.0,9.0,56,0.00,,,0.01,,2013-03-27 02:53:00,
2013-03-26 23:02:00,42.0,27.0,29.90,WNW,290,5.0,7.0,56,0.00,,,0.01,,2013-03-27 03:02:00,
2013-03-26 23:12:00,42.0,27.0,29.90,WNW,290,5.0,7.0,56,0.00,,,0.01,,2013-03-27 03:12:00,
2013-03-26 23:22:00,42.0,28.0,29.93,WSW,255,2.0,6.0,58,0.00,,,0.01,,2013-03-27 03:22:00,
2013-03-26 23:33:00,41.0,27.0,29.93,WNW,290,2.0,6.0,58,0.00,,,0.00,,2013-03-27 03:33:00,
2013-03-26 23:42:00,41.0,27.0,29.93,WNW,290,2.0,6.0,58,0.00,,,0.00,,2013-03-27 03:42:00,
2013-03-26 23:53:00,41.0,28.0,29.93,WNW,285,7.0,9.0,59,0.00,,,0.00,,2013-03-27 03:53:00,